MSR786 EDDF-HECA

Flight info

Callsign MSR786
Flight time 3h 39m
Altitude 41000
Route CINDY8S/18 CINDY Z74 LAMPU DCT NOMBO Y161 MAH DCT LATLO DCT OBEDI DCT TEBLI DCT BOSNA DCT ADNAN DCT RUDAR DCT OSLUD DCT GORAV DCT BUNEX DCT MODRA DCT MEDUX UM867 KOGAT DCT ERANA UL737 TSL UN130 MES UN139 KUMBI L612 BLT A16 CVO
Aircraft A359/H-SDE3FGHIJ3J5M1RWXY/LB1D1

Departure

Time 2026-04-15 09:48
Airport Frankfurt Main Airport (EDDF)

Arrival

Time 2026-04-15 13:27
Airport Cairo International Airport (HECA)
Time Latitude Longitude Altitude Speed Heading
2026-04-15 08:52 50.04652 8.57246 362 ft 0 kts 298°
2026-04-15 09:34 50.04645 8.57264 369 ft 4 kts 300°
2026-04-15 09:34 50.04634 8.57299 362 ft 4 kts 295°
2026-04-15 09:35 50.04621 8.57337 365 ft 4 kts 297°
2026-04-15 09:35 50.04609 8.57374 367 ft 4 kts 296°
2026-04-15 09:35 50.04598 8.57412 363 ft 4 kts 281°
2026-04-15 09:35 50.04600 8.57450 368 ft 4 kts 249°
2026-04-15 09:36 50.04610 8.57489 371 ft 4 kts 250°
2026-04-15 09:36 50.04619 8.57529 364 ft 4 kts 250°
2026-04-15 09:36 50.04628 8.57568 364 ft 4 kts 251°
2026-04-15 09:36 50.04636 8.57606 367 ft 2 kts 251°
2026-04-15 09:37 50.04636 8.57608 364 ft 0 kts 251°
2026-04-15 09:40 50.04636 8.57606 364 ft 1 kts 251°
2026-04-15 09:40 50.04629 8.57569 364 ft 7 kts 253°
2026-04-15 09:41 50.04606 8.57469 369 ft 13 kts 250°
2026-04-15 09:41 50.04569 8.57309 368 ft 18 kts 248°
2026-04-15 09:41 50.04518 8.57105 370 ft 22 kts 249°
2026-04-15 09:41 50.04460 8.56869 372 ft 23 kts 250°
2026-04-15 09:42 50.04410 8.56659 371 ft 19 kts 249°
2026-04-15 09:42 50.04358 8.56435 370 ft 23 kts 250°
2026-04-15 09:42 50.04316 8.56258 367 ft 18 kts 249°
2026-04-15 09:42 50.04267 8.56062 369 ft 19 kts 249°
2026-04-15 09:43 50.04230 8.55903 360 ft 16 kts 251°
2026-04-15 09:43 50.04187 8.55717 367 ft 22 kts 250°
2026-04-15 09:43 50.04128 8.55475 361 ft 25 kts 249°
2026-04-15 09:43 50.04062 8.55203 366 ft 28 kts 250°
2026-04-15 09:44 50.03997 8.54925 367 ft 28 kts 249°
2026-04-15 09:44 50.03925 8.54625 361 ft 31 kts 250°
2026-04-15 09:44 50.03847 8.54344 358 ft 20 kts 233°
2026-04-15 09:44 50.03782 8.54142 361 ft 22 kts 249°
2026-04-15 09:45 50.03727 8.53915 360 ft 24 kts 249°
2026-04-15 09:45 50.03666 8.53666 357 ft 25 kts 249°
2026-04-15 09:45 50.03605 8.53417 355 ft 25 kts 250°
2026-04-15 09:45 50.03546 8.53167 354 ft 26 kts 250°
2026-04-15 09:46 50.03484 8.52917 352 ft 21 kts 246°
2026-04-15 09:46 50.03437 8.52743 342 ft 11 kts 248°
2026-04-15 09:46 50.03414 8.52655 348 ft 7 kts 248°
2026-04-15 09:46 50.03385 8.52604 350 ft 6 kts 204°
2026-04-15 09:47 50.03337 8.52594 349 ft 7 kts 180°
2026-04-15 09:47 50.03321 8.52594 342 ft 0 kts 180°
2026-04-15 09:47 50.03263 8.52594 351 ft 23 kts 180°
2026-04-15 09:48 50.02843 8.52598 347 ft 95 kts 179°
2026-04-15 09:48 50.01966 8.52609 336 ft 155 kts 180°
2026-04-15 09:48 50.01184 8.52613 462 ft 178 kts 180°
2026-04-15 09:48 49.99941 8.52581 1153 ft 179 kts 182°
2026-04-15 09:49 49.98666 8.52492 1766 ft 195 kts 183°
2026-04-15 09:49 49.97235 8.52423 1961 ft 217 kts 174°
2026-04-15 09:49 49.95821 8.53327 2352 ft 225 kts 139°
2026-04-15 09:49 49.94805 8.56054 3299 ft 222 kts 107°
2026-04-15 09:50 49.94459 8.57585 3717 ft 222 kts 110°
2026-04-15 09:50 49.94016 8.59861 3969 ft 221 kts 99°
2026-04-15 09:50 49.93885 8.62331 4007 ft 242 kts 92°
2026-04-15 09:50 49.93829 8.65019 4020 ft 252 kts 92°
2026-04-15 09:51 49.93687 8.67654 4295 ft 255 kts 101°
2026-04-15 09:51 49.92941 8.70145 4957 ft 258 kts 129°
2026-04-15 09:51 49.91622 8.71967 5686 ft 258 kts 143°
2026-04-15 09:51 49.90152 8.73584 6399 ft 260 kts 145°
2026-04-15 09:52 49.88697 8.75367 6970 ft 268 kts 135°
2026-04-15 09:52 49.87613 8.77692 7576 ft 272 kts 121°
2026-04-15 09:52 49.86675 8.80270 8197 ft 276 kts 119°
2026-04-15 09:52 49.85745 8.82899 8810 ft 280 kts 119°
2026-04-15 09:53 49.84796 8.85550 9446 ft 283 kts 120°
2026-04-15 09:53 49.83825 8.88238 10056 ft 288 kts 120°
2026-04-15 09:53 49.82836 8.90968 10483 ft 297 kts 120°
2026-04-15 09:53 49.81797 8.93828 10745 ft 312 kts 120°
2026-04-15 09:54 49.80709 8.96818 11004 ft 326 kts 120°
2026-04-15 09:54 49.79573 8.99940 11264 ft 339 kts 120°
2026-04-15 09:54 49.78398 9.03165 11653 ft 348 kts 120°
2026-04-15 09:54 49.77201 9.06444 12132 ft 352 kts 120°
2026-04-15 09:55 49.76143 9.09894 12625 ft 358 kts 109°
2026-04-15 09:55 49.75467 9.13601 13174 ft 360 kts 104°
2026-04-15 09:55 49.74794 9.17332 13708 ft 363 kts 110°
2026-04-15 09:55 49.73595 9.20763 14169 ft 366 kts 124°
2026-04-15 09:56 49.72050 9.23935 14591 ft 370 kts 130°
2026-04-15 09:56 49.70364 9.26943 15126 ft 371 kts 132°
2026-04-15 09:56 49.66853 9.32849 16077 ft 375 kts 132°
2026-04-15 09:57 49.65092 9.35828 16591 ft 377 kts 132°
2026-04-15 09:57 49.63326 9.38837 17003 ft 381 kts 133°
2026-04-15 09:57 49.61327 9.41560 17466 ft 383 kts 143°
2026-04-15 09:57 49.59164 9.43888 17899 ft 386 kts 146°
2026-04-15 09:58 49.56890 9.46111 18378 ft 388 kts 148°
2026-04-15 09:58 49.54566 9.48259 18775 ft 391 kts 148°
2026-04-15 09:58 49.52209 9.50381 19139 ft 394 kts 149°
2026-04-15 09:58 49.49829 9.52509 19494 ft 397 kts 149°
2026-04-15 09:59 49.47437 9.54652 19839 ft 400 kts 149°
2026-04-15 09:59 49.45029 9.56821 20196 ft 403 kts 149°
2026-04-15 09:59 49.42604 9.59015 20541 ft 406 kts 148°
2026-04-15 09:59 49.40165 9.61226 20908 ft 408 kts 148°
2026-04-15 10:00 49.37717 9.63447 21278 ft 410 kts 148°
2026-04-15 10:00 49.35283 9.65747 21643 ft 412 kts 144°
2026-04-15 10:00 49.33044 9.68493 22015 ft 412 kts 137°
2026-04-15 10:00 49.30928 9.71461 22456 ft 412 kts 135°
2026-04-15 10:01 49.28861 9.74531 22799 ft 415 kts 134°
2026-04-15 10:01 49.26812 9.77666 23132 ft 417 kts 134°
2026-04-15 10:01 49.24764 9.80833 23487 ft 420 kts 133°
2026-04-15 10:01 49.22699 9.84022 23771 ft 424 kts 133°
2026-04-15 10:02 49.20616 9.87225 24038 ft 426 kts 133°
2026-04-15 10:02 49.18512 9.90441 24288 ft 428 kts 133°
2026-04-15 10:02 49.16395 9.93662 24540 ft 431 kts 133°
2026-04-15 10:02 49.14262 9.96894 24795 ft 433 kts 133°
2026-04-15 10:03 49.12118 10.00138 25061 ft 435 kts 133°
2026-04-15 10:03 49.09960 10.03396 25348 ft 438 kts 133°
2026-04-15 10:03 49.07788 10.06672 25604 ft 440 kts 133°
2026-04-15 10:03 49.05599 10.09968 25880 ft 443 kts 133°
2026-04-15 10:04 49.03371 10.13226 26157 ft 446 kts 134°
2026-04-15 10:04 49.01094 10.16445 26452 ft 448 kts 135°
2026-04-15 10:04 48.98786 10.19663 26769 ft 451 kts 135°
2026-04-15 10:04 48.96462 10.22894 27084 ft 453 kts 134°
2026-04-15 10:05 48.94136 10.26139 27367 ft 456 kts 134°
2026-04-15 10:05 48.91795 10.29425 27673 ft 458 kts 134°
2026-04-15 10:05 48.89450 10.32723 27974 ft 461 kts 134°
2026-04-15 10:05 48.87086 10.36049 28298 ft 464 kts 134°
2026-04-15 10:06 48.84712 10.39388 28610 ft 467 kts 134°
2026-04-15 10:06 48.82326 10.42744 28920 ft 469 kts 133°
2026-04-15 10:06 48.79999 10.46224 29239 ft 471 kts 130°
2026-04-15 10:06 48.77743 10.49841 29548 ft 473 kts 129°
2026-04-15 10:07 48.75508 10.53520 29929 ft 475 kts 128°
2026-04-15 10:07 48.73270 10.57211 30344 ft 477 kts 128°
2026-04-15 10:07 48.71010 10.60917 30628 ft 480 kts 128°
2026-04-15 10:07 48.68719 10.64626 30893 ft 484 kts 129°
2026-04-15 10:08 48.66396 10.68346 31157 ft 487 kts 129°
2026-04-15 10:08 48.64055 10.72070 31425 ft 490 kts 129°
2026-04-15 10:08 48.61727 10.75759 31687 ft 493 kts 129°
2026-04-15 10:08 48.59349 10.79518 31957 ft 496 kts 129°
2026-04-15 10:09 48.56965 10.83297 32217 ft 499 kts 128°
2026-04-15 10:09 48.54569 10.87119 32480 ft 501 kts 128°
2026-04-15 10:09 48.52171 10.90954 32789 ft 503 kts 128°
2026-04-15 10:09 48.49762 10.94806 33046 ft 506 kts 127°
2026-04-15 10:10 48.47338 10.98672 33278 ft 509 kts 128°
2026-04-15 10:10 48.44884 11.02527 33498 ft 511 kts 128°
2026-04-15 10:10 48.42406 11.06381 33745 ft 514 kts 128°
2026-04-15 10:10 48.39906 11.10251 33948 ft 517 kts 128°
2026-04-15 10:11 48.37393 11.14138 34172 ft 519 kts 128°
2026-04-15 10:11 48.34869 11.18042 34360 ft 522 kts 128°
2026-04-15 10:11 48.32337 11.21954 34567 ft 523 kts 128°
2026-04-15 10:11 48.29798 11.25873 34888 ft 522 kts 128°
2026-04-15 10:12 48.27362 11.29859 35311 ft 513 kts 123°
2026-04-15 10:12 48.25308 11.34176 35662 ft 504 kts 116°
2026-04-15 10:12 48.23486 11.38658 35961 ft 502 kts 115°
2026-04-15 10:12 48.21734 11.43187 36240 ft 501 kts 114°
2026-04-15 10:13 48.20019 11.47731 36530 ft 501 kts 114°
2026-04-15 10:13 48.18312 11.52287 36819 ft 500 kts 114°
2026-04-15 10:13 48.16608 11.56828 37098 ft 499 kts 114°
2026-04-15 10:13 48.14903 11.61347 37410 ft 499 kts 115°
2026-04-15 10:14 48.13192 11.65858 37723 ft 498 kts 115°
2026-04-15 10:14 48.11481 11.70346 37988 ft 497 kts 116°
2026-04-15 10:14 48.09762 11.74839 38245 ft 497 kts 116°
2026-04-15 10:14 48.08042 11.79323 38501 ft 496 kts 116°
2026-04-15 10:15 48.06323 11.83794 38762 ft 496 kts 116°
2026-04-15 10:15 48.04606 11.88254 38981 ft 495 kts 116°
2026-04-15 10:15 48.02888 11.92711 39154 ft 495 kts 116°
2026-04-15 10:15 48.01166 11.97172 39304 ft 496 kts 117°
2026-04-15 10:16 47.99442 12.01633 39409 ft 497 kts 117°
2026-04-15 10:16 47.97713 12.06096 39529 ft 498 kts 117°
2026-04-15 10:16 47.95978 12.10568 39669 ft 497 kts 117°
2026-04-15 10:16 47.94242 12.15036 39853 ft 497 kts 117°
2026-04-15 10:17 47.92507 12.19491 39990 ft 497 kts 117°
2026-04-15 10:17 47.90791 12.23889 40136 ft 497 kts 117°
2026-04-15 10:17 47.89031 12.28395 40275 ft 497 kts 117°
2026-04-15 10:17 47.87313 12.32786 40412 ft 497 kts 117°
2026-04-15 10:18 47.85571 12.37230 40546 ft 497 kts 117°
2026-04-15 10:18 47.83829 12.41669 40651 ft 497 kts 117°
2026-04-15 10:18 47.82083 12.46110 40791 ft 497 kts 118°
2026-04-15 10:18 47.80336 12.50545 40897 ft 497 kts 118°
2026-04-15 10:19 47.78589 12.54974 41017 ft 497 kts 118°
2026-04-15 10:19 47.76839 12.59401 41145 ft 497 kts 118°
2026-04-15 10:19 47.75087 12.63829 41225 ft 498 kts 118°
2026-04-15 10:20 47.71566 12.72704 41240 ft 498 kts 118°
2026-04-15 10:20 47.67745 12.81276 41232 ft 500 kts 129°
2026-04-15 10:21 47.62983 12.88809 41226 ft 501 kts 133°
2026-04-15 10:21 47.58044 12.96094 41225 ft 501 kts 134°
2026-04-15 10:22 47.53078 13.03338 41212 ft 501 kts 134°
2026-04-15 10:22 47.48125 13.10580 41191 ft 501 kts 134°
2026-04-15 10:23 47.43179 13.17823 41190 ft 500 kts 134°
2026-04-15 10:23 47.38230 13.25055 41193 ft 500 kts 134°
2026-04-15 10:24 47.33281 13.32267 41186 ft 500 kts 134°
2026-04-15 10:24 47.28501 13.39702 41200 ft 499 kts 130°
2026-04-15 10:25 47.24005 13.47414 41185 ft 499 kts 129°
2026-04-15 10:25 47.19442 13.55203 41192 ft 499 kts 130°
2026-04-15 10:26 47.14856 13.62872 41186 ft 499 kts 130°
2026-04-15 10:26 47.10276 13.70449 41203 ft 499 kts 130°
2026-04-15 10:27 47.05663 13.78048 41211 ft 499 kts 130°
2026-04-15 10:27 47.01035 13.85658 41213 ft 499 kts 130°
2026-04-15 10:28 46.96415 13.93235 41216 ft 499 kts 131°
2026-04-15 10:28 46.91790 14.00800 41219 ft 499 kts 131°
2026-04-15 10:29 46.87160 14.08352 41227 ft 498 kts 131°
2026-04-15 10:29 46.82536 14.15874 41231 ft 498 kts 131°
2026-04-15 10:30 46.77902 14.23389 41233 ft 498 kts 131°
2026-04-15 10:30 46.73263 14.30894 41238 ft 498 kts 131°
2026-04-15 10:31 46.68619 14.38385 41241 ft 498 kts 131°
2026-04-15 10:31 46.64006 14.45806 41237 ft 498 kts 131°
2026-04-15 10:32 46.59350 14.53275 41233 ft 498 kts 131°
2026-04-15 10:32 46.54694 14.60724 41229 ft 498 kts 131°
2026-04-15 10:33 46.50031 14.68163 41230 ft 498 kts 132°
2026-04-15 10:33 46.45367 14.75583 41219 ft 498 kts 132°
2026-04-15 10:34 46.40698 14.82992 41214 ft 498 kts 132°
2026-04-15 10:34 46.36013 14.90405 41220 ft 499 kts 132°
2026-04-15 10:35 46.31314 14.97820 41229 ft 500 kts 132°
2026-04-15 10:35 46.26609 15.05224 41221 ft 499 kts 132°
2026-04-15 10:36 46.21914 15.12592 41223 ft 498 kts 132°
2026-04-15 10:36 46.17220 15.19938 41225 ft 498 kts 132°
2026-04-15 10:37 46.13282 15.26088 41226 ft 498 kts 132°
2026-04-15 10:37 46.08590 15.33395 41231 ft 496 kts 133°
2026-04-15 10:38 46.03905 15.40672 41228 ft 495 kts 133°
2026-04-15 10:38 45.99216 15.47934 41236 ft 496 kts 133°
2026-04-15 10:39 45.94517 15.55195 41239 ft 496 kts 133°
2026-04-15 10:39 45.89816 15.62437 41239 ft 495 kts 133°
2026-04-15 10:40 45.85136 15.69630 41235 ft 490 kts 134°
2026-04-15 10:40 45.80487 15.76755 41227 ft 489 kts 134°
2026-04-15 10:41 45.75840 15.83858 41225 ft 488 kts 134°
2026-04-15 10:41 45.71188 15.90950 41203 ft 489 kts 134°
2026-04-15 10:42 45.66569 15.97974 41204 ft 489 kts 134°
2026-04-15 10:42 45.64233 16.01520 41192 ft 489 kts 134°
2026-04-15 10:43 45.59970 16.07978 41194 ft 489 kts 134°
2026-04-15 10:43 45.55292 16.15048 41191 ft 489 kts 134°
2026-04-15 10:44 45.50615 16.22097 41197 ft 489 kts 134°
2026-04-15 10:44 45.45932 16.29138 41194 ft 490 kts 134°
2026-04-15 10:45 45.41241 16.36172 41196 ft 490 kts 135°
2026-04-15 10:45 45.36545 16.43195 41197 ft 489 kts 135°
2026-04-15 10:46 45.31855 16.50192 41195 ft 489 kts 135°
2026-04-15 10:46 45.27155 16.57185 41195 ft 489 kts 135°
2026-04-15 10:47 45.22461 16.64152 41199 ft 489 kts 135°
2026-04-15 10:47 45.17720 16.71068 41195 ft 489 kts 137°
2026-04-15 10:48 45.12750 16.77639 41198 ft 488 kts 139°
2026-04-15 10:48 45.07736 16.84125 41198 ft 488 kts 139°
2026-04-15 10:49 45.02751 16.90644 41200 ft 488 kts 138°
2026-04-15 10:49 44.97937 16.96982 41203 ft 488 kts 138°
2026-04-15 10:50 44.93080 17.03378 41203 ft 488 kts 138°
2026-04-15 10:50 44.88113 17.09900 41207 ft 488 kts 138°
2026-04-15 10:51 44.83143 17.16405 41208 ft 487 kts 138°
2026-04-15 10:51 44.78179 17.22888 41204 ft 487 kts 138°
2026-04-15 10:52 44.73244 17.29314 41193 ft 487 kts 138°
2026-04-15 10:52 44.68272 17.35774 41194 ft 487 kts 139°
2026-04-15 10:53 44.63297 17.42223 41190 ft 487 kts 139°
2026-04-15 10:53 44.58315 17.48666 41184 ft 486 kts 139°
2026-04-15 10:54 44.53342 17.55080 41176 ft 486 kts 139°
2026-04-15 10:54 44.48357 17.61494 41179 ft 485 kts 139°
2026-04-15 10:55 44.43511 17.67716 41171 ft 486 kts 139°
2026-04-15 10:55 44.38683 17.73893 41169 ft 485 kts 139°
2026-04-15 10:56 44.33353 17.79626 41164 ft 482 kts 146°
2026-04-15 10:56 44.27879 17.85037 41153 ft 483 kts 146°
2026-04-15 10:57 44.22363 17.90402 41159 ft 483 kts 147°
2026-04-15 10:57 44.14084 17.98449 41147 ft 484 kts 147°
2026-04-15 10:58 44.08568 18.03812 41143 ft 483 kts 147°
2026-04-15 10:58 44.03057 18.09160 41136 ft 484 kts 147°
2026-04-15 10:59 43.97551 18.14578 41132 ft 485 kts 145°
2026-04-15 10:59 43.92182 18.20261 41131 ft 486 kts 144°
2026-04-15 11:00 43.86825 18.25983 41130 ft 485 kts 145°
2026-04-15 11:00 43.81457 18.31643 41129 ft 485 kts 146°
2026-04-15 11:01 43.76071 18.37269 41129 ft 485 kts 145°
2026-04-15 11:01 43.70676 18.42884 41128 ft 485 kts 145°
2026-04-15 11:02 43.65387 18.48693 41126 ft 488 kts 138°
2026-04-15 11:02 43.60898 18.55741 41055 ft 488 kts 129°
2026-04-15 11:03 43.56672 18.63076 41113 ft 488 kts 128°
2026-04-15 11:03 43.52487 18.70430 41109 ft 488 kts 128°
2026-04-15 11:04 43.48281 18.77762 41100 ft 488 kts 129°
2026-04-15 11:04 43.44081 18.85018 41099 ft 488 kts 129°
2026-04-15 11:05 43.39841 18.92308 41087 ft 488 kts 130°
2026-04-15 11:05 43.35596 18.99588 41081 ft 488 kts 130°
2026-04-15 11:06 43.31345 19.06866 41084 ft 488 kts 130°
2026-04-15 11:06 43.27102 19.14126 41078 ft 488 kts 130°
2026-04-15 11:07 43.22843 19.21389 41083 ft 488 kts 130°
2026-04-15 11:07 43.18583 19.28635 41073 ft 488 kts 130°
2026-04-15 11:08 43.14322 19.35877 41075 ft 488 kts 130°
2026-04-15 11:08 43.10052 19.43101 41068 ft 488 kts 130°
2026-04-15 11:09 43.05777 19.50313 41067 ft 489 kts 130°
2026-04-15 11:09 43.01487 19.57536 41063 ft 489 kts 130°
2026-04-15 11:10 42.97201 19.64752 41062 ft 489 kts 130°
2026-04-15 11:10 42.92905 19.71954 41061 ft 489 kts 131°
2026-04-15 11:11 42.88597 19.79157 41059 ft 490 kts 131°
2026-04-15 11:11 42.84292 19.86340 41069 ft 489 kts 131°
2026-04-15 11:12 42.79986 19.93510 41080 ft 489 kts 131°
2026-04-15 11:12 42.75675 20.00669 41087 ft 489 kts 130°
2026-04-15 11:13 42.71364 20.07813 41094 ft 489 kts 131°
2026-04-15 11:13 42.67043 20.14946 41090 ft 489 kts 131°
2026-04-15 11:14 42.62719 20.22068 41107 ft 488 kts 131°
2026-04-15 11:14 42.58395 20.29173 41107 ft 488 kts 131°
2026-04-15 11:15 42.54073 20.36259 41116 ft 488 kts 131°
2026-04-15 11:15 42.49742 20.43341 41113 ft 487 kts 131°
2026-04-15 11:16 42.45412 20.50407 41116 ft 487 kts 131°
2026-04-15 11:16 42.41075 20.57466 41116 ft 487 kts 131°
2026-04-15 11:17 42.36738 20.64509 41118 ft 487 kts 131°
2026-04-15 11:17 42.32393 20.71548 41119 ft 487 kts 131°
2026-04-15 11:18 42.28078 20.78522 41126 ft 487 kts 131°
2026-04-15 11:18 42.23734 20.85528 41127 ft 486 kts 131°
2026-04-15 11:19 42.19389 20.92516 41135 ft 486 kts 131°
2026-04-15 11:19 42.15040 20.99496 41135 ft 486 kts 131°
2026-04-15 11:20 42.10576 21.06311 41145 ft 485 kts 137°
2026-04-15 11:20 42.05738 21.12627 41143 ft 484 kts 138°
2026-04-15 11:21 42.01636 21.17830 41148 ft 484 kts 139°
2026-04-15 11:21 41.96728 21.24018 41148 ft 484 kts 139°
2026-04-15 11:22 41.91856 21.30163 41152 ft 483 kts 139°
2026-04-15 11:22 41.86958 21.36339 41159 ft 483 kts 139°
2026-04-15 11:23 41.82056 21.42511 41160 ft 483 kts 139°
2026-04-15 11:23 41.77148 21.48675 41153 ft 483 kts 139°
2026-04-15 11:24 41.72238 21.54829 41164 ft 483 kts 139°
2026-04-15 11:24 41.67322 21.60976 41173 ft 484 kts 139°
2026-04-15 11:25 41.62404 21.67111 41163 ft 484 kts 139°
2026-04-15 11:25 41.57477 21.73245 41169 ft 484 kts 139°
2026-04-15 11:26 41.52554 21.79360 41163 ft 484 kts 139°
2026-04-15 11:26 41.47626 21.85469 41162 ft 483 kts 139°
2026-04-15 11:27 41.42700 21.91563 41162 ft 483 kts 139°
2026-04-15 11:27 41.37767 21.97650 41168 ft 483 kts 139°
2026-04-15 11:28 41.32834 22.03725 41168 ft 483 kts 139°
2026-04-15 11:28 41.27902 22.09786 41176 ft 483 kts 139°
2026-04-15 11:29 41.22959 22.15847 41177 ft 483 kts 140°
2026-04-15 11:29 41.18013 22.21899 41187 ft 483 kts 140°
2026-04-15 11:30 41.13002 22.27835 41189 ft 482 kts 143°
2026-04-15 11:30 41.07763 22.33389 41194 ft 482 kts 144°
2026-04-15 11:31 41.02499 22.38889 41195 ft 482 kts 144°
2026-04-15 11:31 40.97264 22.44438 41194 ft 482 kts 143°
2026-04-15 11:32 40.92038 22.50023 41199 ft 484 kts 143°
2026-04-15 11:32 40.86800 22.55621 41197 ft 485 kts 143°
2026-04-15 11:33 40.81553 22.61215 41194 ft 485 kts 143°
2026-04-15 11:33 40.76303 22.66796 41196 ft 485 kts 143°
2026-04-15 11:34 40.71049 22.72369 41186 ft 485 kts 143°
2026-04-15 11:34 40.65790 22.77935 41188 ft 485 kts 144°
2026-04-15 11:35 40.60529 22.83491 41186 ft 485 kts 144°
2026-04-15 11:35 40.55264 22.89040 41185 ft 485 kts 144°
2026-04-15 11:36 40.49994 22.94584 41185 ft 485 kts 144°
2026-04-15 11:36 40.44869 23.00357 41187 ft 487 kts 137°
2026-04-15 11:37 40.40131 23.06728 41185 ft 488 kts 136°
2026-04-15 11:37 40.35463 23.13199 41183 ft 488 kts 136°
2026-04-15 11:38 40.30801 23.19666 41188 ft 488 kts 136°
2026-04-15 11:38 40.26129 23.26111 41186 ft 488 kts 136°
2026-04-15 11:39 40.21445 23.32544 41186 ft 488 kts 136°
2026-04-15 11:39 40.16757 23.38965 41179 ft 488 kts 136°
2026-04-15 11:40 40.12072 23.45371 41176 ft 487 kts 136°
2026-04-15 11:40 40.07391 23.51756 41182 ft 486 kts 136°
2026-04-15 11:41 40.02744 23.58082 41178 ft 486 kts 136°
2026-04-15 11:41 39.98061 23.64445 41180 ft 486 kts 136°
2026-04-15 11:42 39.93375 23.70797 41178 ft 486 kts 137°
2026-04-15 11:42 39.88688 23.77139 41168 ft 486 kts 137°
2026-04-15 11:43 39.84004 23.83463 41178 ft 484 kts 137°
2026-04-15 11:43 39.79331 23.89758 41171 ft 484 kts 137°
2026-04-15 11:44 39.74651 23.96050 41169 ft 484 kts 137°
2026-04-15 11:44 39.69973 24.02325 41165 ft 484 kts 137°
2026-04-15 11:45 39.65288 24.08598 41177 ft 484 kts 137°
2026-04-15 11:45 39.60604 24.14856 41178 ft 483 kts 137°
2026-04-15 11:46 39.55919 24.21103 41168 ft 483 kts 137°
2026-04-15 11:46 39.51234 24.27336 41164 ft 482 kts 137°
2026-04-15 11:47 39.46548 24.33558 41159 ft 482 kts 137°
2026-04-15 11:47 39.41861 24.39768 41151 ft 482 kts 138°
2026-04-15 11:48 39.37169 24.45972 41160 ft 483 kts 138°
2026-04-15 11:48 39.32473 24.52178 41160 ft 483 kts 137°
2026-04-15 11:49 39.27799 24.58424 41154 ft 484 kts 137°
2026-04-15 11:49 39.23120 24.64689 41154 ft 485 kts 137°
2026-04-15 11:50 39.18432 24.70945 41154 ft 485 kts 137°
2026-04-15 11:50 39.13733 24.77195 41149 ft 485 kts 137°
2026-04-15 11:51 39.09035 24.83428 41147 ft 485 kts 137°
2026-04-15 11:51 39.04324 24.89556 41145 ft 485 kts 138°
2026-04-15 11:52 38.99564 24.95691 41141 ft 485 kts 138°
2026-04-15 11:52 38.94805 25.01830 41131 ft 485 kts 138°
2026-04-15 11:53 38.90090 25.07913 41135 ft 484 kts 139°
2026-04-15 11:53 38.85334 25.14042 41135 ft 484 kts 139°
2026-04-15 11:54 38.80575 25.20162 41129 ft 484 kts 139°
2026-04-15 11:54 38.75815 25.26270 41129 ft 484 kts 139°
2026-04-15 11:55 38.71052 25.32370 41114 ft 484 kts 139°
2026-04-15 11:55 38.66292 25.38454 41126 ft 483 kts 139°
2026-04-15 11:56 38.61536 25.44522 41118 ft 483 kts 139°
2026-04-15 11:56 38.56780 25.50577 41118 ft 483 kts 139°
2026-04-15 11:57 38.49639 25.59645 41113 ft 483 kts 139°
2026-04-15 11:58 38.44876 25.65679 41105 ft 482 kts 139°
2026-04-15 11:58 38.40110 25.71705 41106 ft 482 kts 139°
2026-04-15 11:59 38.35345 25.77726 41102 ft 482 kts 139°
2026-04-15 11:59 38.30588 25.83745 41104 ft 482 kts 139°
2026-04-15 12:00 38.25579 25.89355 41101 ft 476 kts 150°
2026-04-15 12:00 38.19731 25.93102 41102 ft 469 kts 162°
2026-04-15 12:01 38.13623 25.95974 41090 ft 468 kts 164°
2026-04-15 12:01 38.07482 25.98704 41098 ft 467 kts 165°
2026-04-15 12:02 38.01360 26.01442 41090 ft 467 kts 164°
2026-04-15 12:02 37.95239 26.04208 41094 ft 467 kts 164°
2026-04-15 12:03 37.89126 26.06978 41084 ft 467 kts 164°
2026-04-15 12:03 37.83013 26.09745 41094 ft 466 kts 164°
2026-04-15 12:04 37.76912 26.12500 41094 ft 466 kts 164°
2026-04-15 12:04 37.70809 26.15256 41088 ft 466 kts 164°
2026-04-15 12:05 37.64742 26.17982 41089 ft 466 kts 164°
2026-04-15 12:05 37.58637 26.20719 41085 ft 466 kts 164°
2026-04-15 12:06 37.52528 26.23455 41088 ft 466 kts 164°
2026-04-15 12:06 37.47408 26.25746 41088 ft 466 kts 164°
2026-04-15 12:07 37.41304 26.28473 41071 ft 465 kts 164°
2026-04-15 12:07 37.35203 26.31194 41091 ft 465 kts 164°
2026-04-15 12:08 37.29104 26.33908 41083 ft 465 kts 164°
2026-04-15 12:08 37.23005 26.36618 41086 ft 465 kts 164°
2026-04-15 12:09 37.16905 26.39331 41067 ft 465 kts 164°
2026-04-15 12:09 37.10802 26.42036 41073 ft 465 kts 164°
2026-04-15 12:10 37.04735 26.44719 41078 ft 466 kts 164°
2026-04-15 12:10 36.98588 26.47434 41078 ft 466 kts 164°
2026-04-15 12:11 36.92475 26.50131 41071 ft 466 kts 164°
2026-04-15 12:11 36.86397 26.52811 41072 ft 467 kts 164°
2026-04-15 12:12 36.80266 26.55502 41071 ft 467 kts 164°
2026-04-15 12:12 36.74128 26.58187 41071 ft 467 kts 164°
2026-04-15 12:13 36.67992 26.60867 41058 ft 468 kts 164°
2026-04-15 12:13 36.61842 26.63552 41070 ft 469 kts 164°
2026-04-15 12:14 36.55681 26.66237 41070 ft 469 kts 164°
2026-04-15 12:14 36.49518 26.68919 41068 ft 469 kts 164°
2026-04-15 12:15 36.43356 26.71595 41058 ft 469 kts 164°
2026-04-15 12:15 36.37185 26.74271 41067 ft 470 kts 164°
2026-04-15 12:16 36.31007 26.76951 41064 ft 470 kts 164°
2026-04-15 12:16 36.24829 26.79619 41064 ft 470 kts 165°
2026-04-15 12:17 36.18650 26.82282 41058 ft 470 kts 165°
2026-04-15 12:17 36.12464 26.84946 41062 ft 471 kts 165°
2026-04-15 12:18 36.06275 26.87607 41059 ft 471 kts 165°
2026-04-15 12:18 36.00079 26.90267 41062 ft 472 kts 165°
2026-04-15 12:19 35.93875 26.92926 41052 ft 472 kts 165°
2026-04-15 12:19 35.87669 26.95581 41062 ft 472 kts 165°
2026-04-15 12:20 35.81466 26.98232 41060 ft 472 kts 165°
2026-04-15 12:20 35.75254 27.00861 41058 ft 472 kts 165°
2026-04-15 12:21 35.69035 27.03465 41047 ft 472 kts 166°
2026-04-15 12:21 35.62824 27.06064 41050 ft 471 kts 166°
2026-04-15 12:22 35.56617 27.08663 41050 ft 471 kts 165°
2026-04-15 12:22 35.50410 27.11259 41049 ft 471 kts 166°
2026-04-15 12:23 35.44230 27.13977 41044 ft 474 kts 160°
2026-04-15 12:23 35.38544 27.18196 41040 ft 482 kts 148°
2026-04-15 12:24 35.33200 27.23232 41048 ft 486 kts 146°
2026-04-15 12:24 35.27917 27.28392 41048 ft 486 kts 146°
2026-04-15 12:25 35.22624 27.33537 41048 ft 486 kts 146°
2026-04-15 12:25 35.17310 27.38654 41046 ft 486 kts 146°
2026-04-15 12:26 35.11992 27.43750 41042 ft 486 kts 147°
2026-04-15 12:26 35.06668 27.48841 41035 ft 486 kts 147°
2026-04-15 12:27 35.01376 27.53893 41042 ft 487 kts 147°
2026-04-15 12:27 34.96032 27.58967 41037 ft 487 kts 147°
2026-04-15 12:28 34.90681 27.64036 41034 ft 487 kts 147°
2026-04-15 12:28 34.85334 27.69097 41024 ft 487 kts 147°
2026-04-15 12:29 34.79982 27.74156 41034 ft 487 kts 147°
2026-04-15 12:29 34.74628 27.79208 41033 ft 487 kts 147°
2026-04-15 12:30 34.69273 27.84252 41033 ft 487 kts 147°
2026-04-15 12:30 34.63917 27.89290 41034 ft 487 kts 147°
2026-04-15 12:31 34.58559 27.94320 41032 ft 487 kts 147°
2026-04-15 12:31 34.53194 27.99349 41029 ft 487 kts 147°
2026-04-15 12:32 34.47830 28.04367 41026 ft 487 kts 147°
2026-04-15 12:32 34.42470 28.09375 41016 ft 487 kts 147°
2026-04-15 12:33 34.37096 28.14387 41024 ft 487 kts 147°
2026-04-15 12:33 34.31723 28.19389 41028 ft 487 kts 147°
2026-04-15 12:34 34.26347 28.24386 41012 ft 487 kts 147°
2026-04-15 12:34 34.20966 28.29380 41017 ft 488 kts 148°
2026-04-15 12:35 34.15579 28.34370 41016 ft 488 kts 148°
2026-04-15 12:35 34.10189 28.39356 41010 ft 488 kts 148°
2026-04-15 12:36 34.04793 28.44338 41008 ft 489 kts 148°
2026-04-15 12:36 33.99393 28.49316 41006 ft 489 kts 148°
2026-04-15 12:37 33.93995 28.54285 41001 ft 489 kts 148°
2026-04-15 12:37 33.88583 28.59257 41007 ft 490 kts 148°
2026-04-15 12:38 33.83162 28.64230 41003 ft 490 kts 148°
2026-04-15 12:38 33.77740 28.69196 41001 ft 490 kts 148°
2026-04-15 12:39 33.72320 28.74182 40997 ft 492 kts 146°
2026-04-15 12:39 33.67231 28.79653 41004 ft 495 kts 142°
2026-04-15 12:40 33.62189 28.85298 40998 ft 496 kts 142°
2026-04-15 12:40 33.57152 28.90971 40998 ft 497 kts 142°
2026-04-15 12:41 33.52107 28.96634 40982 ft 497 kts 142°
2026-04-15 12:41 33.47049 29.02290 40992 ft 497 kts 142°
2026-04-15 12:42 33.41986 29.07937 40989 ft 497 kts 142°
2026-04-15 12:42 33.36921 29.13577 40983 ft 498 kts 142°
2026-04-15 12:43 33.31848 29.19217 40980 ft 498 kts 142°
2026-04-15 12:43 33.26770 29.24851 40977 ft 499 kts 142°
2026-04-15 12:44 33.21680 29.30491 40980 ft 499 kts 143°
2026-04-15 12:44 33.16586 29.36127 40979 ft 499 kts 143°
2026-04-15 12:45 33.11487 29.41759 40973 ft 499 kts 143°
2026-04-15 12:45 33.06386 29.47384 40972 ft 499 kts 143°
2026-04-15 12:46 33.01282 29.53002 40970 ft 499 kts 143°
2026-04-15 12:46 32.96170 29.58620 40969 ft 501 kts 143°
2026-04-15 12:47 32.91041 29.64246 40970 ft 502 kts 143°
2026-04-15 12:47 32.85904 29.69873 40966 ft 502 kts 143°
2026-04-15 12:48 32.80767 29.75491 40964 ft 502 kts 143°
2026-04-15 12:48 32.75624 29.81106 40963 ft 502 kts 143°
2026-04-15 12:49 32.70516 29.86674 40958 ft 502 kts 143°
2026-04-15 12:49 32.65366 29.92278 40954 ft 503 kts 143°
2026-04-15 12:50 32.60199 29.97889 40955 ft 504 kts 143°
2026-04-15 12:50 32.55024 30.03503 40955 ft 504 kts 143°
2026-04-15 12:51 32.50687 30.08201 40949 ft 504 kts 143°
2026-04-15 12:51 32.46514 30.12719 40944 ft 504 kts 143°
2026-04-15 12:52 32.41325 30.18312 40944 ft 505 kts 143°
2026-04-15 12:52 32.36131 30.23894 40944 ft 505 kts 143°
2026-04-15 12:53 32.30927 30.29481 40938 ft 506 kts 144°
2026-04-15 12:53 32.25717 30.35068 40941 ft 506 kts 144°
2026-04-15 12:54 32.20506 30.40649 40317 ft 505 kts 144°
2026-04-15 12:54 32.17910 30.43429 39841 ft 500 kts 144°
2026-04-15 12:54 32.15341 30.46180 39387 ft 496 kts 144°
2026-04-15 12:54 32.12799 30.48898 38899 ft 492 kts 144°
2026-04-15 12:55 32.10263 30.51604 38331 ft 489 kts 144°
2026-04-15 12:55 32.07744 30.54290 37616 ft 488 kts 144°
2026-04-15 12:55 32.05222 30.56973 36848 ft 489 kts 144°
2026-04-15 12:55 32.02689 30.59664 36073 ft 491 kts 143°
2026-04-15 12:56 32.00152 30.62359 35307 ft 492 kts 143°
2026-04-15 12:56 31.97607 30.65062 34597 ft 493 kts 143°
2026-04-15 12:56 31.95068 30.67759 34017 ft 490 kts 143°
2026-04-15 12:56 31.92552 30.70432 33429 ft 486 kts 143°
2026-04-15 12:57 31.90048 30.73092 32884 ft 482 kts 143°
2026-04-15 12:57 31.87570 30.75722 32357 ft 477 kts 143°
2026-04-15 12:57 31.85119 30.78320 31847 ft 472 kts 143°
2026-04-15 12:57 31.82722 30.80857 31355 ft 468 kts 143°
2026-04-15 12:58 31.80286 30.83433 30860 ft 463 kts 143°
2026-04-15 12:58 31.77900 30.85953 30378 ft 458 kts 143°
2026-04-15 12:58 31.75541 30.88444 29884 ft 454 kts 143°
2026-04-15 12:58 31.73201 30.90911 29314 ft 450 kts 143°
2026-04-15 12:59 31.68593 30.95765 28116 ft 445 kts 143°
2026-04-15 12:59 31.66299 30.98179 27492 ft 443 kts 143°
2026-04-15 12:59 31.64009 31.00586 26907 ft 441 kts 142°
2026-04-15 13:00 31.61731 31.02979 26383 ft 438 kts 142°
2026-04-15 13:00 31.59466 31.05359 25838 ft 435 kts 142°
2026-04-15 13:00 31.57221 31.07716 25335 ft 432 kts 142°
2026-04-15 13:00 31.54886 31.09893 24823 ft 426 kts 149°
2026-04-15 13:01 31.52334 31.11601 24328 ft 419 kts 159°
2026-04-15 13:01 31.49618 31.12750 23814 ft 412 kts 169°
2026-04-15 13:01 31.46834 31.13474 23267 ft 409 kts 173°
2026-04-15 13:01 31.44048 31.14053 22702 ft 405 kts 174°
2026-04-15 13:02 31.41276 31.14559 22236 ft 400 kts 174°
2026-04-15 13:02 31.38545 31.15034 21783 ft 394 kts 174°
2026-04-15 13:02 31.35850 31.15504 21366 ft 388 kts 174°
2026-04-15 13:02 31.33196 31.15975 20874 ft 384 kts 173°
2026-04-15 13:03 31.30565 31.16452 20391 ft 381 kts 173°
2026-04-15 13:03 31.27964 31.16932 19953 ft 376 kts 173°
2026-04-15 13:03 31.25388 31.17411 19485 ft 373 kts 173°
2026-04-15 13:03 31.22833 31.17891 19005 ft 371 kts 172°
2026-04-15 13:04 31.20295 31.18369 18541 ft 368 kts 172°
2026-04-15 13:04 31.17773 31.18839 18085 ft 364 kts 172°
2026-04-15 13:04 31.15287 31.19300 17541 ft 360 kts 172°
2026-04-15 13:04 31.12823 31.19757 17026 ft 357 kts 172°
2026-04-15 13:05 31.10378 31.20212 16507 ft 355 kts 172°
2026-04-15 13:05 31.07946 31.20664 16011 ft 353 kts 172°
2026-04-15 13:05 31.05521 31.21113 15529 ft 352 kts 171°
2026-04-15 13:05 31.03108 31.21559 15035 ft 350 kts 171°
2026-04-15 13:06 31.00710 31.22005 14559 ft 348 kts 171°
2026-04-15 13:06 30.98328 31.22449 14090 ft 346 kts 171°
2026-04-15 13:06 30.95956 31.22889 13626 ft 344 kts 171°
2026-04-15 13:06 30.93599 31.23326 13090 ft 342 kts 171°
2026-04-15 13:07 30.91259 31.23760 12601 ft 339 kts 171°
2026-04-15 13:07 30.88935 31.24189 12089 ft 337 kts 171°
2026-04-15 13:07 30.86602 31.24277 11592 ft 336 kts 186°
2026-04-15 13:07 30.84322 31.23743 11107 ft 334 kts 194°
2026-04-15 13:08 30.82085 31.23051 10632 ft 332 kts 194°
2026-04-15 13:08 30.79892 31.22351 10164 ft 329 kts 194°
2026-04-15 13:08 30.77672 31.21633 9687 ft 325 kts 194°
2026-04-15 13:08 30.75549 31.20940 9292 ft 317 kts 195°
2026-04-15 13:09 30.73458 31.20256 9012 ft 307 kts 195°
2026-04-15 13:09 30.71439 31.19600 8757 ft 296 kts 195°
2026-04-15 13:09 30.69484 31.18966 8499 ft 287 kts 194°
2026-04-15 13:09 30.67591 31.18349 8256 ft 281 kts 194°
2026-04-15 13:10 30.65709 31.17746 8011 ft 279 kts 195°
2026-04-15 13:10 30.63841 31.17158 7762 ft 278 kts 195°
2026-04-15 13:10 30.61977 31.16575 7510 ft 277 kts 194°
2026-04-15 13:10 30.60122 31.15993 7271 ft 276 kts 194°
2026-04-15 13:11 30.58274 31.15412 7047 ft 275 kts 194°
2026-04-15 13:11 30.56423 31.14830 6887 ft 274 kts 194°
2026-04-15 13:11 30.54578 31.14250 6870 ft 275 kts 195°
2026-04-15 13:11 30.52733 31.13671 6867 ft 275 kts 195°
2026-04-15 13:12 30.50893 31.13094 6865 ft 274 kts 195°
2026-04-15 13:12 30.49049 31.12518 6869 ft 274 kts 194°
2026-04-15 13:12 30.47206 31.11942 6865 ft 274 kts 194°
2026-04-15 13:12 30.45349 31.11411 6868 ft 275 kts 194°
2026-04-15 13:13 30.43509 31.10849 6867 ft 274 kts 194°
2026-04-15 13:13 30.41660 31.10272 6866 ft 274 kts 195°
2026-04-15 13:13 30.39824 31.09701 6869 ft 274 kts 195°
2026-04-15 13:13 30.37985 31.09127 6872 ft 274 kts 195°
2026-04-15 13:14 30.36150 31.08556 6865 ft 273 kts 195°
2026-04-15 13:14 30.34309 31.07985 6865 ft 273 kts 195°
2026-04-15 13:14 30.32470 31.07418 6871 ft 273 kts 194°
2026-04-15 13:14 30.30632 31.06851 6872 ft 273 kts 194°
2026-04-15 13:15 30.28794 31.06286 6873 ft 273 kts 194°
2026-04-15 13:15 30.26960 31.05719 6874 ft 274 kts 195°
2026-04-15 13:15 30.25118 31.05150 6873 ft 274 kts 194°
2026-04-15 13:15 30.23275 31.04583 6873 ft 274 kts 195°
2026-04-15 13:16 30.21457 31.04026 6875 ft 273 kts 194°
2026-04-15 13:16 30.19621 31.03464 6879 ft 273 kts 194°
2026-04-15 13:16 30.17785 31.02903 6872 ft 272 kts 195°
2026-04-15 13:16 30.15952 31.02344 6872 ft 273 kts 194°
2026-04-15 13:17 30.14122 31.01769 6871 ft 273 kts 197°
2026-04-15 13:17 30.12418 31.00813 6877 ft 273 kts 212°
2026-04-15 13:17 30.10846 30.99582 6873 ft 273 kts 214°
2026-04-15 13:17 30.09296 30.98315 6876 ft 273 kts 214°
2026-04-15 13:18 30.07749 30.97043 6876 ft 273 kts 214°
2026-04-15 13:18 30.06201 30.95769 6877 ft 273 kts 214°
2026-04-15 13:18 30.04586 30.94692 6521 ft 268 kts 198°
2026-04-15 13:18 30.02735 30.94486 6012 ft 271 kts 171°
2026-04-15 13:19 30.01000 30.95297 5539 ft 273 kts 144°
2026-04-15 13:19 29.99646 30.96826 5122 ft 273 kts 131°
2026-04-15 13:19 29.98443 30.98516 4726 ft 272 kts 130°
2026-04-15 13:19 29.97266 31.00219 4349 ft 270 kts 129°
2026-04-15 13:20 29.96097 31.01910 3874 ft 270 kts 130°
2026-04-15 13:20 29.94951 31.03608 3474 ft 268 kts 126°
2026-04-15 13:20 29.94166 31.05550 3047 ft 269 kts 108°
2026-04-15 13:20 29.93734 31.07642 2741 ft 268 kts 96°
2026-04-15 13:21 29.93896 31.09772 2683 ft 268 kts 77°
2026-04-15 13:21 29.94343 31.11859 2674 ft 268 kts 75°
2026-04-15 13:21 29.94829 31.13937 2676 ft 268 kts 75°
2026-04-15 13:21 29.95318 31.16013 2672 ft 268 kts 75°
2026-04-15 13:22 29.95809 31.18084 2675 ft 268 kts 75°
2026-04-15 13:22 29.96293 31.20111 2663 ft 253 kts 75°
2026-04-15 13:22 29.96745 31.22006 2666 ft 239 kts 75°
2026-04-15 13:22 29.97184 31.23841 2663 ft 237 kts 75°
2026-04-15 13:23 29.97699 31.25643 2664 ft 237 kts 63°
2026-04-15 13:23 29.98638 31.27199 2668 ft 237 kts 48°
2026-04-15 13:23 29.99740 31.28583 2658 ft 228 kts 47°
2026-04-15 13:23 30.00749 31.29905 2658 ft 211 kts 49°
2026-04-15 13:24 30.01663 31.31138 2684 ft 195 kts 49°
2026-04-15 13:24 30.02529 31.32315 2540 ft 186 kts 49°
2026-04-15 13:24 30.03334 31.33400 2315 ft 172 kts 48°
2026-04-15 13:24 30.04101 31.34420 2086 ft 167 kts 47°
2026-04-15 13:25 30.04856 31.35425 1876 ft 165 kts 47°
2026-04-15 13:25 30.05597 31.36414 1658 ft 158 kts 47°
2026-04-15 13:25 30.06289 31.37339 1436 ft 147 kts 47°
2026-04-15 13:25 30.06929 31.38192 1283 ft 139 kts 47°
2026-04-15 13:26 30.07560 31.39034 1120 ft 138 kts 47°
2026-04-15 13:26 30.08188 31.39872 938 ft 138 kts 47°
2026-04-15 13:26 30.08816 31.40711 767 ft 137 kts 48°
2026-04-15 13:26 30.09436 31.41540 590 ft 137 kts 48°
2026-04-15 13:27 30.10059 31.42371 476 ft 135 kts 47°
2026-04-15 13:27 30.10613 31.43107 465 ft 106 kts 48°
2026-04-15 13:27 30.11034 31.43665 468 ft 81 kts 48°
2026-04-15 13:27 30.11290 31.43962 469 ft 32 kts 30°
2026-04-15 13:28 30.11434 31.44035 466 ft 13 kts 23°
2026-04-15 13:28 30.11482 31.44058 463 ft 0 kts 23°
2026-04-15 13:28 30.11484 31.44059 464 ft 1 kts 23°
2026-04-15 13:29 30.11502 31.44068 464 ft 5 kts 23°
2026-04-15 13:29 30.11554 31.44083 461 ft 10 kts 357°
2026-04-15 13:29 30.11636 31.44064 456 ft 10 kts 310°
2026-04-15 13:29 30.11614 31.43979 454 ft 13 kts 230°
2026-04-15 13:30 30.11549 31.43889 454 ft 16 kts 230°
2026-04-15 13:30 30.11470 31.43781 454 ft 19 kts 230°
2026-04-15 13:30 30.11379 31.43661 454 ft 21 kts 228°
2026-04-15 13:30 30.11278 31.43530 454 ft 20 kts 227°
2026-04-15 13:31 30.11272 31.43400 450 ft 20 kts 320°
2026-04-15 13:31 30.11396 31.43276 426 ft 27 kts 319°
2026-04-15 13:31 30.11549 31.43121 414 ft 33 kts 319°
2026-04-15 13:31 30.11714 31.42958 413 ft 26 kts 319°
2026-04-15 13:32 30.11841 31.42832 402 ft 24 kts 320°
2026-04-15 13:32 30.11972 31.42704 391 ft 25 kts 319°
2026-04-15 13:32 30.12083 31.42592 387 ft 18 kts 319°
2026-04-15 13:32 30.12186 31.42489 378 ft 19 kts 319°
2026-04-15 13:33 30.12202 31.42408 379 ft 8 kts 236°
2026-04-15 13:33 30.12163 31.42346 373 ft 11 kts 231°
2026-04-15 13:33 30.12105 31.42276 380 ft 13 kts 226°
2026-04-15 13:33 30.12042 31.42187 376 ft 15 kts 231°
2026-04-15 13:34 30.11974 31.42100 374 ft 14 kts 228°
2026-04-15 13:34 30.11913 31.42019 374 ft 12 kts 229°
2026-04-15 13:34 30.11859 31.41946 374 ft 12 kts 229°
2026-04-15 13:34 30.11806 31.41874 374 ft 12 kts 230°
2026-04-15 13:35 30.11747 31.41794 374 ft 14 kts 229°
2026-04-15 13:35 30.11682 31.41705 374 ft 15 kts 229°
2026-04-15 13:35 30.11643 31.41606 377 ft 14 kts 303°
2026-04-15 13:35 30.11697 31.41533 373 ft 6 kts 283°
2026-04-15 13:36 30.11692 31.41505 368 ft 5 kts 253°
2026-04-15 13:36 30.11674 31.41446 369 ft 11 kts 251°
2026-04-15 13:36 30.11656 31.41383 371 ft 14 kts 252°
2026-04-15 13:36 30.11622 31.41258 370 ft 18 kts 252°
2026-04-15 13:37 30.11642 31.41186 367 ft 6 kts 359°
2026-04-15 13:37 30.11675 31.41175 364 ft 7 kts 340°
2026-04-15 13:37 30.11736 31.41151 359 ft 12 kts 341°
2026-04-15 13:37 30.11831 31.41116 355 ft 17 kts 343°
2026-04-15 13:38 30.11955 31.41073 335 ft 21 kts 343°
2026-04-15 13:38 30.12104 31.41018 327 ft 24 kts 342°
2026-04-15 13:38 30.12249 31.40965 319 ft 14 kts 341°
2026-04-15 13:38 30.12334 31.40933 314 ft 15 kts 342°
2026-04-15 13:39 30.12445 31.40893 309 ft 18 kts 343°
2026-04-15 13:39 30.12518 31.40862 309 ft 9 kts 322°
2026-04-15 13:39 30.12529 31.40817 306 ft 2 kts 266°
2026-04-15 13:39 30.12526 31.40799 302 ft 3 kts 259°
2026-04-15 13:40 30.12520 31.40773 306 ft 4 kts 254°
2026-04-15 13:40 30.12514 31.40747 306 ft 2 kts 253°
2026-04-15 13:40 30.12513 31.40744 306 ft 0 kts 253°